Location: ?????
(30.2541°N, 31.0910°E)
Time: 19:16:54
(UTC+00:00)

Cosmos 1633 Rocket - Pass Details

Date: 03 April 2023
Orbit: 604 x 623 km, 82.5° (Epoch: 30 May)

Event Time Altitude Azimuth Distance (km) Brightness Sun altitude
Rises 03:08:41 0° 334° (NNW) 2,895 6.3 -8.2°
Reaches altitude 10° 03:11:24 10° 317° (NW) 1,982 5.3 -7.6°
Maximum altitude 03:14:32 19° 272° (W) 1,452 4.4 -6.9°
Drops below altitude 10° 03:17:39 10° 225° (SW) 1,965 5.1 -6.3°
Sets 03:20:21 0° 208° (SSW) 2,862 6.1 -5.7°
